Time,TemperatureF,DewpointF,PressureIn,WindDirection,WindDirectionDegrees,WindSpeedMPH,WindSpeedGustMPH,Humidity,HourlyPrecipIn,Conditions,Clouds,dailyrainin,SoftwareType,DateUTC
2013-02-18 00:00:00,58.9,45.0,29.79,WSW,248,4.0,12.8,60,0.00,,,0.00,WUHU216HW,2013-02-18 06:00:00,
2013-02-18 00:05:00,58.9,45.5,29.78,SSE,158,6.5,15.2,61,0.00,,,0.00,WUHU216HW,2013-02-18 06:05:00,
2013-02-18 00:10:00,58.9,45.5,29.78,SSW,203,17.2,17.2,61,0.00,,,0.00,WUHU216HW,2013-02-18 06:10:00,
2013-02-18 00:15:00,58.9,45.5,29.78,SW,225,6.3,17.2,61,0.00,,,0.00,WUHU216HW,2013-02-18 06:15:00,
2013-02-18 00:20:00,58.9,45.8,29.78,SSW,203,6.3,17.2,62,0.00,,,0.00,WUHU216HW,2013-02-18 06:20:00,
2013-02-18 00:25:00,58.7,45.7,29.78,SSW,203,4.7,11.4,62,0.00,,,0.00,WUHU216HW,2013-02-18 06:25:00,
2013-02-18 00:30:00,58.7,45.7,29.78,SSE,158,2.2,12.8,62,0.00,,,0.00,WUHU216HW,2013-02-18 06:30:00,
2013-02-18 00:35:00,58.7,46.1,29.78,SSW,203,8.7,12.8,63,0.00,,,0.00,WUHU216HW,2013-02-18 06:35:00,
2013-02-18 00:40:00,58.5,45.9,29.78,SSW,203,7.2,15.2,63,0.00,,,0.00,WUHU216HW,2013-02-18 06:40:00,
2013-02-18 00:45:00,58.5,45.9,29.78,SW,225,6.5,15.2,63,0.00,,,0.00,WUHU216HW,2013-02-18 06:45:00,
2013-02-18 00:50:00,58.3,45.7,29.78,South,180,8.7,11.0,63,0.00,,,0.00,WUHU216HW,2013-02-18 06:50:00,
2013-02-18 00:55:00,58.3,45.7,29.78,SSE,158,7.6,12.8,63,0.00,,,0.00,WUHU216HW,2013-02-18 06:55:00,
2013-02-18 01:00:00,58.1,45.6,29.78,SSE,158,4.9,12.8,63,0.00,,,0.00,WUHU216HW,2013-02-18 07:00:00,
2013-02-18 01:05:00,58.1,46.0,29.78,WSW,248,6.3,12.1,64,0.00,,,0.00,WUHU216HW,2013-02-18 07:05:00,
2013-02-18 01:10:00,58.1,46.0,29.78,SSW,203,7.8,13.0,64,0.00,,,0.00,WUHU216HW,2013-02-18 07:10:00,
2013-02-18 01:15:00,58.0,45.8,29.78,SSW,203,6.9,13.0,64,0.00,,,0.00,WUHU216HW,2013-02-18 07:15:00,
2013-02-18 01:20:00,58.0,46.3,29.78,South,180,5.1,13.0,65,0.00,,,0.00,WUHU216HW,2013-02-18 07:20:00,
2013-02-18 01:25:00,58.0,45.8,29.78,SW,225,8.1,13.0,64,0.00,,,0.00,WUHU216HW,2013-02-18 07:25:00,
2013-02-18 01:30:00,58.0,45.8,29.77,SSE,158,2.5,10.1,64,0.00,,,0.00,WUHU216HW,2013-02-18 07:30:00,
2013-02-18 01:35:00,58.0,46.6,29.77,SSW,203,8.1,10.5,66,0.00,,,0.00,WUHU216HW,2013-02-18 07:35:00,
2013-02-18 01:40:00,58.0,46.6,29.77,SW,225,6.7,13.9,66,0.00,,,0.00,WUHU216HW,2013-02-18 07:40:00,
2013-02-18 01:45:00,58.0,46.6,29.77,South,180,7.4,13.9,66,0.00,,,0.00,WUHU216HW,2013-02-18 07:45:00,
2013-02-18 01:50:00,58.0,46.6,29.76,SE,135,6.5,12.1,66,0.00,,,0.00,WUHU216HW,2013-02-18 07:50:00,
2013-02-18 01:55:00,58.0,47.1,29.76,SSW,203,1.8,10.3,67,0.00,,,0.00,WUHU216HW,2013-02-18 07:55:00,
2013-02-18 02:00:00,58.0,47.1,29.76,SE,135,9.2,10.3,67,0.00,,,0.00,WUHU216HW,2013-02-18 08:00:00,
2013-02-18 02:05:00,58.0,46.6,29.76,South,180,6.9,10.1,66,0.00,,,0.00,WUHU216HW,2013-02-18 08:05:00,
2013-02-18 02:10:00,58.0,46.6,29.76,SSE,158,2.9,11.4,66,0.00,,,0.00,WUHU216HW,2013-02-18 08:10:00,
2013-02-18 02:15:00,58.0,47.1,29.76,SSE,158,6.3,11.4,67,0.00,,,0.00,WUHU216HW,2013-02-18 08:15:00,
2013-02-18 02:20:00,58.0,47.4,29.75,East,90,4.9,11.2,68,0.00,,,0.00,WUHU216HW,2013-02-18 08:20:00,
2013-02-18 02:25:00,58.0,47.4,29.75,SE,135,2.5,11.2,68,0.00,,,0.00,WUHU216HW,2013-02-18 08:25:00,
2013-02-18 02:30:00,58.0,47.4,29.75,South,180,6.0,9.8,68,0.00,,,0.00,WUHU216HW,2013-02-18 08:30:00,
2013-02-18 02:35:00,58.0,47.4,29.74,SW,225,4.0,9.8,68,0.00,,,0.00,WUHU216HW,2013-02-18 08:35:00,
2013-02-18 02:40:00,58.0,47.4,29.74,SSW,203,6.9,8.3,68,0.00,,,0.00,WUHU216HW,2013-02-18 08:40:00,
2013-02-18 02:45:00,58.0,47.4,29.74,ESE,113,3.6,11.0,68,0.00,,,0.00,WUHU216HW,2013-02-18 08:45:00,
2013-02-18 02:50:00,58.0,47.4,29.73,South,180,9.8,11.0,68,0.00,,,0.00,WUHU216HW,2013-02-18 08:50:00,
2013-02-18 02:55:00,58.0,47.4,29.73,ESE,113,3.1,9.8,68,0.00,,,0.00,WUHU216HW,2013-02-18 08:55:00,
2013-02-18 03:00:00,58.0,47.9,29.73,SSW,203,3.6,9.4,69,0.00,,,0.00,WUHU216HW,2013-02-18 09:00:00,
2013-02-18 03:05:00,58.0,47.9,29.73,SSE,158,7.6,8.5,69,0.00,,,0.00,WUHU216HW,2013-02-18 09:05:00,
2013-02-18 03:10:00,58.0,47.9,29.73,SSW,203,8.3,12.1,69,0.00,,,0.00,WUHU216HW,2013-02-18 09:10:00,
2013-02-18 03:15:00,58.1,48.0,29.73,SW,225,2.0,12.1,69,0.00,,,0.00,WUHU216HW,2013-02-18 09:15:00,
2013-02-18 03:20:00,58.1,48.4,29.73,SSE,158,4.0,10.7,70,0.00,,,0.00,WUHU216HW,2013-02-18 09:20:00,
2013-02-18 03:25:00,58.1,48.4,29.72,SW,225,9.2,11.4,70,0.00,,,0.00,WUHU216HW,2013-02-18 09:25:00,
2013-02-18 03:30:00,58.3,48.6,29.72,South,180,2.2,11.4,70,0.00,,,0.00,WUHU216HW,2013-02-18 09:30:00,
2013-02-18 03:35:00,58.3,48.6,29.72,South,180,5.4,11.4,70,0.00,,,0.00,WUHU216HW,2013-02-18 09:35:00,
2013-02-18 03:40:00,58.3,48.6,29.71,SSW,203,10.1,10.5,70,0.00,,,0.00,WUHU216HW,2013-02-18 09:40:00,
2013-02-18 03:45:00,58.5,49.1,29.71,SSW,203,3.4,11.0,71,0.00,,,0.00,WUHU216HW,2013-02-18 09:45:00,
2013-02-18 03:50:00,58.5,49.1,29.71,WSW,248,4.0,11.0,71,0.00,,,0.00,WUHU216HW,2013-02-18 09:50:00,
2013-02-18 03:55:00,58.5,48.8,29.71,SSE,158,5.1,10.7,70,0.00,,,0.00,WUHU216HW,2013-02-18 09:55:00,
2013-02-18 04:00:00,58.7,49.3,29.71,SSW,203,9.8,10.5,71,0.00,,,0.00,WUHU216HW,2013-02-18 10:00:00,
2013-02-18 04:05:00,58.7,49.3,29.71,South,180,5.4,10.5,71,0.00,,,0.00,WUHU216HW,2013-02-18 10:05:00,
2013-02-18 04:10:00,58.7,49.3,29.70,SE,135,1.1,11.4,71,0.00,,,0.00,WUHU216HW,2013-02-18 10:10:00,
2013-02-18 04:15:00,58.7,49.3,29.70,South,180,5.1,11.4,71,0.00,,,0.00,WUHU216HW,2013-02-18 10:15:00,
2013-02-18 04:20:00,58.7,49.7,29.70,SW,225,8.7,9.8,72,0.00,,,0.00,WUHU216HW,2013-02-18 10:20:00,
2013-02-18 04:25:00,58.7,49.7,29.69,SSW,203,5.8,10.7,72,0.00,,,0.00,WUHU216HW,2013-02-18 10:25:00,
2013-02-18 04:30:00,58.7,49.3,29.69,WSW,248,5.1,10.7,71,0.00,,,0.00,WUHU216HW,2013-02-18 10:30:00,
2013-02-18 04:35:00,58.7,49.7,29.69,South,180,4.9,10.1,72,0.00,,,0.00,WUHU216HW,2013-02-18 10:35:00,
2013-02-18 04:40:00,58.7,49.7,29.69,SSE,158,3.4,11.0,72,0.00,,,0.00,WUHU216HW,2013-02-18 10:40:00,
2013-02-18 04:45:00,58.7,50.0,29.69,SSE,158,6.3,11.2,73,0.00,,,0.00,WUHU216HW,2013-02-18 10:45:00,
2013-02-18 04:50:00,58.7,50.0,29.69,SW,225,7.2,11.2,73,0.00,,,0.00,WUHU216HW,2013-02-18 10:50:00,
2013-02-18 04:55:00,58.7,50.0,29.69,East,90,4.5,10.7,73,0.00,,,0.00,WUHU216HW,2013-02-18 10:55:00,
2013-02-18 05:00:00,58.9,50.2,29.69,South,180,4.7,10.3,73,0.00,,,0.00,WUHU216HW,2013-02-18 11:00:00,
2013-02-18 05:05:00,58.9,50.2,29.69,South,180,4.0,13.6,73,0.00,,,0.00,WUHU216HW,2013-02-18 11:05:00,
2013-02-18 05:10:00,58.9,50.2,29.69,South,180,5.4,13.6,73,0.00,,,0.00,WUHU216HW,2013-02-18 11:10:00,
2013-02-18 05:15:00,58.9,50.2,29.69,SSW,203,2.7,9.2,73,0.00,,,0.00,WUHU216HW,2013-02-18 11:15:00,
2013-02-18 05:20:00,59.0,50.4,29.69,SSE,158,2.0,8.7,73,0.00,,,0.00,WUHU216HW,2013-02-18 11:20:00,
2013-02-18 05:25:00,59.0,50.4,29.68,SE,135,4.0,10.3,73,0.00,,,0.00,WUHU216HW,2013-02-18 11:25:00,
2013-02-18 05:30:00,59.0,50.8,29.68,South,180,4.0,12.8,74,0.00,,,0.00,WUHU216HW,2013-02-18 11:30:00,
2013-02-18 05:35:00,59.2,50.9,29.68,SSW,203,6.3,12.8,74,0.00,,,0.00,WUHU216HW,2013-02-18 11:35:00,
2013-02-18 05:40:00,59.2,50.6,29.68,South,180,5.6,10.7,73,0.00,,,0.00,WUHU216HW,2013-02-18 11:40:00,
2013-02-18 05:45:00,59.2,50.6,29.69,SSW,203,2.2,10.7,73,0.00,,,0.00,WUHU216HW,2013-02-18 11:45:00,
2013-02-18 05:50:00,59.2,50.9,29.68,South,180,3.6,8.9,74,0.00,,,0.00,WUHU216HW,2013-02-18 11:50:00,
2013-02-18 05:55:00,59.2,50.9,29.68,SSW,203,4.5,8.9,74,0.00,,,0.00,WUHU216HW,2013-02-18 11:55:00,
2013-02-18 06:00:00,59.4,51.5,29.68,SSE,158,6.5,9.8,75,0.00,,,0.00,WUHU216HW,2013-02-18 12:00:00,
2013-02-18 06:05:00,59.4,51.1,29.68,South,180,6.7,9.8,74,0.00,,,0.00,WUHU216HW,2013-02-18 12:05:00,
2013-02-18 06:10:00,59.4,51.1,29.68,South,180,4.0,10.1,74,0.00,,,0.00,WUHU216HW,2013-02-18 12:10:00,
2013-02-18 06:15:00,59.4,51.1,29.68,SW,225,5.4,10.5,74,0.00,,,0.00,WUHU216HW,2013-02-18 12:15:00,
2013-02-18 06:20:00,59.4,51.1,29.68,SE,135,3.6,11.4,74,0.00,,,0.00,WUHU216HW,2013-02-18 12:20:00,
2013-02-18 06:25:00,59.4,51.1,29.68,SSE,158,2.2,11.4,74,0.00,,,0.00,WUHU216HW,2013-02-18 12:25:00,
2013-02-18 06:30:00,59.4,51.1,29.68,SE,135,6.5,8.7,74,0.00,,,0.00,WUHU216HW,2013-02-18 12:30:00,
2013-02-18 06:35:00,59.4,51.1,29.68,SW,225,1.3,10.7,74,0.00,,,0.00,WUHU216HW,2013-02-18 12:35:00,
2013-02-18 06:40:00,59.6,51.7,29.68,South,180,6.9,10.7,75,0.00,,,0.00,WUHU216HW,2013-02-18 12:40:00,
2013-02-18 06:45:00,59.6,51.7,29.68,SSE,158,6.3,10.5,75,0.00,,,0.00,WUHU216HW,2013-02-18 12:45:00,
2013-02-18 06:50:00,59.8,51.8,29.68,South,180,6.9,9.8,75,0.00,,,0.00,WUHU216HW,2013-02-18 12:50:00,
2013-02-18 06:55:00,59.8,52.2,29.68,South,180,5.8,9.8,76,0.00,,,0.00,WUHU216HW,2013-02-18 12:55:00,
2013-02-18 07:00:00,59.8,52.2,29.68,SSW,203,4.5,10.3,76,0.00,,,0.00,WUHU216HW,2013-02-18 13:00:00,
2013-02-18 07:05:00,59.9,52.4,29.68,SSW,203,5.8,11.4,76,0.00,,,0.00,WUHU216HW,2013-02-18 13:05:00,
2013-02-18 07:10:00,60.1,52.6,29.68,SSW,203,7.8,11.9,76,0.00,,,0.00,WUHU216HW,2013-02-18 13:10:00,
2013-02-18 07:15:00,60.1,52.6,29.68,SW,225,8.9,11.9,76,0.00,,,0.00,WUHU216HW,2013-02-18 13:15:00,
2013-02-18 07:21:00,60.3,52.4,29.68,SW,225,6.9,10.7,75,0.00,,,0.00,WUHU216HW,2013-02-18 13:21:00,
2013-02-18 07:26:00,60.3,52.7,29.68,WSW,248,9.6,12.8,76,0.00,,,0.00,WUHU216HW,2013-02-18 13:26:00,
2013-02-18 07:31:00,60.5,52.9,29.68,SSW,203,13.9,13.9,76,0.00,,,0.00,WUHU216HW,2013-02-18 13:31:00,
2013-02-18 07:36:00,60.5,52.9,29.68,South,180,9.8,14.3,76,0.00,,,0.00,WUHU216HW,2013-02-18 13:36:00,
2013-02-18 07:41:00,60.7,53.1,29.68,SE,135,9.2,14.3,76,0.00,,,0.00,WUHU216HW,2013-02-18 13:41:00,
2013-02-18 07:46:00,60.7,53.1,29.68,SSE,158,3.4,15.2,76,0.00,,,0.00,WUHU216HW,2013-02-18 13:46:00,
2013-02-18 07:51:00,60.7,53.1,29.68,SSW,203,8.5,15.2,76,0.00,,,0.00,WUHU216HW,2013-02-18 13:51:00,
2013-02-18 07:56:00,60.7,53.1,29.68,SSW,203,7.6,13.2,76,0.00,,,0.00,WUHU216HW,2013-02-18 13:56:00,
2013-02-18 08:01:00,60.7,53.1,29.68,SSW,203,6.9,13.2,76,0.00,,,0.00,WUHU216HW,2013-02-18 14:01:00,
2013-02-18 08:06:00,60.8,53.3,29.68,SW,225,6.0,14.1,76,0.00,,,0.00,WUHU216HW,2013-02-18 14:06:00,
2013-02-18 08:11:00,60.8,53.3,29.68,South,180,8.1,14.1,76,0.00,,,0.00,WUHU216HW,2013-02-18 14:11:00,
2013-02-18 08:16:00,60.8,53.3,29.68,South,180,4.0,9.8,76,0.00,,,0.00,WUHU216HW,2013-02-18 14:16:00,
2013-02-18 08:21:00,61.0,53.5,29.68,SSE,158,4.0,10.7,76,0.00,,,0.00,WUHU216HW,2013-02-18 14:21:00,
2013-02-18 08:26:00,61.0,53.5,29.68,South,180,7.8,10.7,76,0.00,,,0.00,WUHU216HW,2013-02-18 14:26:00,
2013-02-18 08:31:00,61.2,53.7,29.68,SW,225,3.8,11.4,76,0.00,,,0.00,WUHU216HW,2013-02-18 14:31:00,
2013-02-18 08:36:00,61.4,53.7,29.69,WSW,248,3.4,11.4,76,0.00,,,0.00,WUHU216HW,2013-02-18 14:36:00,
2013-02-18 08:41:00,61.4,53.7,29.69,SSW,203,8.9,13.0,76,0.00,,,0.00,WUHU216HW,2013-02-18 14:41:00,
2013-02-18 08:46:00,61.6,53.9,29.69,SSW,203,7.4,13.4,76,0.00,,,0.00,WUHU216HW,2013-02-18 14:46:00,
2013-02-18 08:51:00,61.7,54.1,29.69,SSE,158,9.6,13.4,76,0.00,,,0.00,WUHU216HW,2013-02-18 14:51:00,
2013-02-18 08:56:00,61.9,54.3,29.69,SSW,203,12.5,12.5,76,0.00,,,0.00,WUHU216HW,2013-02-18 14:56:00,
2013-02-18 09:01:00,62.3,54.2,29.69,SW,225,9.4,12.5,75,0.00,,,0.00,WUHU216HW,2013-02-18 15:01:00,
2013-02-18 09:06:00,62.5,54.4,29.69,SSW,203,6.7,12.1,75,0.00,,,0.00,WUHU216HW,2013-02-18 15:06:00,
2013-02-18 09:11:00,62.6,54.2,29.68,SSE,158,12.1,13.6,74,0.00,,,0.00,WUHU216HW,2013-02-18 15:11:00,
2013-02-18 09:16:00,62.6,54.2,29.69,ESE,113,8.1,13.6,74,0.00,,,0.00,WUHU216HW,2013-02-18 15:16:00,
2013-02-18 09:21:00,62.8,54.7,29.68,SW,225,16.3,16.3,75,0.00,,,0.00,WUHU216HW,2013-02-18 15:21:00,
2013-02-18 09:26:00,63.0,54.9,29.68,SW,225,9.6,16.3,75,0.00,,,0.00,WUHU216HW,2013-02-18 15:26:00,
2013-02-18 09:31:00,63.2,55.1,29.68,SE,135,12.3,16.3,75,0.00,,,0.00,WUHU216HW,2013-02-18 15:31:00,
2013-02-18 09:36:00,63.4,54.9,29.68,South,180,10.3,13.2,74,0.00,,,0.00,WUHU216HW,2013-02-18 15:36:00,
2013-02-18 09:41:00,63.7,55.3,29.68,SSE,158,6.7,13.9,74,0.00,,,0.00,WUHU216HW,2013-02-18 15:41:00,
2013-02-18 09:46:00,64.1,55.6,29.68,SW,225,10.7,15.9,74,0.00,,,0.00,WUHU216HW,2013-02-18 15:46:00,
2013-02-18 09:51:00,64.3,55.4,29.68,SW,225,9.8,15.9,73,0.00,,,0.00,WUHU216HW,2013-02-18 15:51:00,
2013-02-18 09:56:00,64.4,55.6,29.68,South,180,7.6,14.3,73,0.00,,,0.00,WUHU216HW,2013-02-18 15:56:00,
2013-02-18 10:01:00,64.6,55.5,29.68,South,180,6.5,14.3,72,0.00,,,0.00,WUHU216HW,2013-02-18 16:01:00,
2013-02-18 10:06:00,65.2,55.9,29.68,SSE,158,6.0,16.1,72,0.00,,,0.00,WUHU216HW,2013-02-18 16:06:00,
2013-02-18 10:11:00,65.5,55.5,29.68,SSE,158,5.6,16.1,70,0.00,,,0.00,WUHU216HW,2013-02-18 16:11:00,
2013-02-18 10:16:00,65.9,55.8,29.68,SSW,203,7.4,15.7,70,0.00,,,0.00,WUHU216HW,2013-02-18 16:16:00,
2013-02-18 10:21:00,66.1,55.6,29.68,West,270,11.0,14.3,69,0.00,,,0.00,WUHU216HW,2013-02-18 16:21:00,
2013-02-18 10:26:00,66.2,55.4,29.67,WSW,248,10.5,14.3,68,0.00,,,0.00,WUHU216HW,2013-02-18 16:26:00,
2013-02-18 10:31:00,66.6,55.7,29.68,South,180,8.5,13.6,68,0.00,,,0.00,WUHU216HW,2013-02-18 16:31:00,
2013-02-18 10:36:00,67.0,55.2,29.68,South,180,9.2,16.8,66,0.00,,,0.00,WUHU216HW,2013-02-18 16:36:00,
2013-02-18 10:41:00,67.3,55.5,29.68,SSE,158,8.9,16.8,66,0.00,,,0.00,WUHU216HW,2013-02-18 16:41:00,
2013-02-18 10:46:00,67.5,55.3,29.68,South,180,7.2,11.4,65,0.00,,,0.00,WUHU216HW,2013-02-18 16:46:00,
2013-02-18 10:51:00,67.9,55.6,29.67,South,180,6.0,11.4,65,0.00,,,0.00,WUHU216HW,2013-02-18 16:51:00,
2013-02-18 10:56:00,68.0,55.4,29.67,SSW,203,4.5,9.8,64,0.00,,,0.00,WUHU216HW,2013-02-18 16:56:00,
2013-02-18 11:01:00,68.4,55.7,29.68,SSW,203,5.4,10.7,64,0.00,,,0.00,WUHU216HW,2013-02-18 17:01:00,
2013-02-18 11:06:00,68.9,55.8,29.68,SSW,203,9.6,10.7,63,0.00,,,0.00,WUHU216HW,2013-02-18 17:06:00,
2013-02-18 11:11:00,69.5,55.9,29.67,SSW,203,7.4,12.1,62,0.00,,,0.00,WUHU216HW,2013-02-18 17:11:00,
2013-02-18 11:16:00,69.8,55.4,29.67,WSW,248,5.6,12.8,60,0.00,,,0.00,WUHU216HW,2013-02-18 17:16:00,
2013-02-18 11:21:00,70.2,55.3,29.67,NNW,338,7.4,12.8,59,0.00,,,0.00,WUHU216HW,2013-02-18 17:21:00,
2013-02-18 11:26:00,70.7,55.3,29.67,WSW,248,10.1,12.1,58,0.00,,,0.00,WUHU216HW,2013-02-18 17:26:00,
2013-02-18 11:31:00,71.1,54.1,29.67,SSW,203,12.3,13.4,55,0.00,,,0.00,WUHU216HW,2013-02-18 17:31:00,
2013-02-18 11:36:00,71.5,54.9,29.67,South,180,10.5,13.4,56,0.00,,,0.00,WUHU216HW,2013-02-18 17:36:00,
2013-02-18 11:41:00,71.6,54.5,29.67,SW,225,5.4,15.4,55,0.00,,,0.00,WUHU216HW,2013-02-18 17:41:00,
2013-02-18 11:46:00,72.0,54.9,29.66,SW,225,6.9,15.4,55,0.00,,,0.00,WUHU216HW,2013-02-18 17:46:00,
2013-02-18 11:51:00,72.2,53.0,29.67,SSE,158,3.4,13.2,51,0.00,,,0.00,WUHU216HW,2013-02-18 17:51:00,
2013-02-18 11:56:00,72.4,53.6,29.67,SW,225,11.9,12.3,52,0.00,,,0.00,WUHU216HW,2013-02-18 17:56:00,
2013-02-18 12:01:00,72.4,53.2,29.65,SE,135,6.0,15.0,51,0.00,,,0.00,WUHU216HW,2013-02-18 18:01:00,
2013-02-18 12:06:00,72.9,52.6,29.65,WSW,248,8.5,15.0,49,0.00,,,0.00,WUHU216HW,2013-02-18 18:06:00,
2013-02-18 12:11:00,72.9,51.4,29.65,SW,225,7.2,14.8,47,0.00,,,0.00,WUHU216HW,2013-02-18 18:11:00,
2013-02-18 12:16:00,73.4,52.5,29.65,SSW,203,12.1,14.3,48,0.00,,,0.00,WUHU216HW,2013-02-18 18:16:00,
2013-02-18 12:21:00,73.8,51.6,29.65,WSW,248,9.4,14.3,46,0.00,,,0.00,WUHU216HW,2013-02-18 18:21:00,
2013-02-18 12:26:00,74.3,51.6,29.65,South,180,12.5,12.5,45,0.00,,,0.00,WUHU216HW,2013-02-18 18:26:00,
2013-02-18 12:31:00,74.5,51.7,29.65,SE,135,4.3,12.5,45,0.00,,,0.00,WUHU216HW,2013-02-18 18:31:00,
2013-02-18 12:36:00,74.9,52.0,29.65,SSE,158,3.8,12.1,45,0.00,,,0.00,WUHU216HW,2013-02-18 18:36:00,
2013-02-18 12:41:00,75.2,52.4,29.65,SW,225,6.0,10.1,45,0.00,,,0.00,WUHU216HW,2013-02-18 18:41:00,
2013-02-18 12:46:00,75.4,50.1,29.64,WSW,248,9.6,12.5,41,0.00,,,0.00,WUHU216HW,2013-02-18 18:46:00,
2013-02-18 12:51:00,75.6,50.9,29.64,SW,225,4.0,14.8,42,0.00,,,0.00,WUHU216HW,2013-02-18 18:51:00,
2013-02-18 12:56:00,75.8,50.4,29.64,SW,225,8.5,14.8,41,0.00,,,0.00,WUHU216HW,2013-02-18 18:56:00,
2013-02-18 13:01:00,76.0,49.2,29.64,WSW,248,4.9,12.8,39,0.00,,,0.00,WUHU216HW,2013-02-18 19:01:00,
2013-02-18 13:06:00,76.3,50.3,29.64,SSW,203,4.3,12.8,40,0.00,,,0.00,WUHU216HW,2013-02-18 19:06:00,
2013-02-18 13:11:00,76.3,48.8,29.64,WSW,248,13.4,16.1,38,0.00,,,0.00,WUHU216HW,2013-02-18 19:11:00,
2013-02-18 13:16:00,76.3,48.8,29.65,West,270,4.0,16.1,38,0.00,,,0.00,WUHU216HW,2013-02-18 19:16:00,
2013-02-18 13:21:00,76.5,49.0,29.64,NE,45,5.4,13.4,38,0.00,,,0.00,WUHU216HW,2013-02-18 19:21:00,
2013-02-18 13:26:00,76.5,49.0,29.64,West,270,7.6,9.6,38,0.00,,,0.00,WUHU216HW,2013-02-18 19:26:00,
2013-02-18 13:31:00,76.5,48.2,29.64,ESE,113,5.4,12.3,37,0.00,,,0.00,WUHU216HW,2013-02-18 19:31:00,
2013-02-18 13:36:00,76.3,46.5,29.64,SW,225,8.3,12.3,35,0.00,,,0.00,WUHU216HW,2013-02-18 19:36:00,
2013-02-18 13:41:00,76.0,47.7,29.64,North,0,1.8,8.3,37,0.00,,,0.00,WUHU216HW,2013-02-18 19:41:00,
2013-02-18 13:46:00,75.8,46.0,29.65,SSE,158,2.9,8.3,35,0.00,,,0.00,WUHU216HW,2013-02-18 19:46:00,
2013-02-18 13:51:00,75.2,44.8,29.66,NNW,338,7.2,10.5,34,0.00,,,0.00,WUHU216HW,2013-02-18 19:51:00,
2013-02-18 13:56:00,74.9,44.5,29.66,ESE,113,2.9,10.5,34,0.00,,,0.00,WUHU216HW,2013-02-18 19:56:00,
2013-02-18 14:01:00,74.5,42.7,29.67,NE,45,3.1,7.2,32,0.00,,,0.00,WUHU216HW,2013-02-18 20:01:00,
2013-02-18 14:06:00,74.0,43.7,29.67,WSW,248,1.6,5.4,34,0.00,,,0.00,WUHU216HW,2013-02-18 20:06:00,
2013-02-18 14:12:00,73.8,41.9,29.68,East,90,4.3,7.4,32,0.00,,,0.00,WUHU216HW,2013-02-18 20:12:00,
2013-02-18 14:17:00,73.3,42.3,29.68,NNW,338,2.0,7.4,33,0.00,,,0.00,WUHU216HW,2013-02-18 20:17:00,
2013-02-18 14:22:00,73.1,42.1,29.69,NE,45,2.2,4.7,33,0.00,,,0.00,WUHU216HW,2013-02-18 20:22:00,
2013-02-18 14:27:00,72.7,41.9,29.69,NNE,23,3.1,6.9,33,0.00,,,0.00,WUHU216HW,2013-02-18 20:27:00,
2013-02-18 14:32:00,72.4,40.8,29.70,NW,315,3.6,6.9,32,0.00,,,0.00,WUHU216HW,2013-02-18 20:32:00,
2013-02-18 14:37:00,72.0,41.2,29.70,ESE,113,1.8,5.6,33,0.00,,,0.00,WUHU216HW,2013-02-18 20:37:00,
2013-02-18 14:42:00,71.8,39.6,29.70,North,0,3.4,8.1,31,0.00,,,0.00,WUHU216HW,2013-02-18 20:42:00,
2013-02-18 14:47:00,71.5,40.1,29.70,West,270,3.4,8.1,32,0.00,,,0.00,WUHU216HW,2013-02-18 20:47:00,
2013-02-18 14:52:00,71.1,39.7,29.71,NNE,23,2.5,8.9,32,0.00,,,0.00,WUHU216HW,2013-02-18 20:52:00,
2013-02-18 14:57:00,70.7,38.6,29.71,North,0,5.6,10.5,31,0.00,,,0.00,WUHU216HW,2013-02-18 20:57:00,
2013-02-18 15:02:00,70.4,39.1,29.71,North,0,3.4,10.5,32,0.00,,,0.00,WUHU216HW,2013-02-18 21:02:00,
2013-02-18 15:07:00,70.2,38.9,29.72,South,180,1.8,6.3,32,0.00,,,0.00,WUHU216HW,2013-02-18 21:07:00,
2013-02-18 15:12:00,70.2,38.9,29.72,ENE,68,3.8,6.3,32,0.00,,,0.00,WUHU216HW,2013-02-18 21:12:00,
2013-02-18 15:17:00,69.8,38.5,29.72,NNW,338,3.4,5.1,32,0.00,,,0.00,WUHU216HW,2013-02-18 21:17:00,
2013-02-18 15:22:00,69.8,38.5,29.73,NE,45,4.0,6.3,32,0.00,,,0.00,WUHU216HW,2013-02-18 21:22:00,
2013-02-18 15:27:00,69.5,39.0,29.73,NNW,338,3.8,7.2,33,0.00,,,0.00,WUHU216HW,2013-02-18 21:27:00,
2013-02-18 15:32:00,69.5,39.0,29.73,NNW,338,2.7,7.2,33,0.00,,,0.00,WUHU216HW,2013-02-18 21:32:00,
2013-02-18 15:37:00,69.5,39.0,29.73,North,0,5.6,5.6,33,0.00,,,0.00,WUHU216HW,2013-02-18 21:37:00,
2013-02-18 15:42:00,69.3,39.5,29.74,SE,135,1.8,6.0,34,0.00,,,0.00,WUHU216HW,2013-02-18 21:42:00,
2013-02-18 15:47:00,68.9,38.5,29.74,NW,315,8.7,8.7,33,0.00,,,0.00,WUHU216HW,2013-02-18 21:47:00,
2013-02-18 15:52:00,68.8,38.4,29.74,NW,315,9.4,9.4,33,0.00,,,0.00,WUHU216HW,2013-02-18 21:52:00,
2013-02-18 15:57:00,68.2,38.6,29.75,NNW,338,2.5,9.4,34,0.00,,,0.00,WUHU216HW,2013-02-18 21:57:00,
2013-02-18 16:02:00,68.0,38.4,29.75,NNW,338,3.1,6.9,34,0.00,,,0.00,WUHU216HW,2013-02-18 22:02:00,
2013-02-18 16:07:00,68.0,39.2,29.75,NW,315,5.4,6.7,35,0.00,,,0.00,WUHU216HW,2013-02-18 22:07:00,
2013-02-18 16:12:00,67.9,39.0,29.75,ENE,68,4.0,6.7,35,0.00,,,0.00,WUHU216HW,2013-02-18 22:12:00,
2013-02-18 16:17:00,67.9,39.0,29.76,ENE,68,2.5,6.7,35,0.00,,,0.00,WUHU216HW,2013-02-18 22:17:00,
2013-02-18 16:22:00,67.9,39.0,29.76,NNE,23,2.5,7.6,35,0.00,,,0.00,WUHU216HW,2013-02-18 22:22:00,
2013-02-18 16:27:00,67.7,38.9,29.76,NE,45,2.2,7.6,35,0.00,,,0.00,WUHU216HW,2013-02-18 22:27:00,
2013-02-18 16:32:00,67.3,38.5,29.77,SSE,158,1.8,6.5,35,0.00,,,0.00,WUHU216HW,2013-02-18 22:32:00,
2013-02-18 16:37:00,67.1,38.4,29.77,NNE,23,1.3,6.3,35,0.00,,,0.00,WUHU216HW,2013-02-18 22:37:00,
2013-02-18 16:42:00,67.0,39.7,29.77,West,270,2.9,6.5,37,0.00,,,0.00,WUHU216HW,2013-02-18 22:42:00,
2013-02-18 16:47:00,67.0,39.0,29.77,South,180,1.3,6.5,36,0.00,,,0.00,WUHU216HW,2013-02-18 22:47:00,
2013-02-18 16:52:00,67.0,39.0,29.77,NNW,338,2.2,6.3,36,0.00,,,0.00,WUHU216HW,2013-02-18 22:52:00,
2013-02-18 16:57:00,66.8,38.8,29.78,West,270,3.6,6.3,36,0.00,,,0.00,WUHU216HW,2013-02-18 22:57:00,
2013-02-18 17:02:00,66.6,38.6,29.78,NE,45,4.0,6.3,36,0.00,,,0.00,WUHU216HW,2013-02-18 23:02:00,
2013-02-18 17:07:00,66.2,38.3,29.78,NE,45,2.7,6.3,36,0.00,,,0.00,WUHU216HW,2013-02-18 23:07:00,
2013-02-18 17:12:00,66.2,38.3,29.78,North,0,0.9,6.3,36,0.00,,,0.00,WUHU216HW,2013-02-18 23:12:00,
2013-02-18 17:17:00,66.1,38.2,29.79,ENE,68,3.4,4.7,36,0.00,,,0.00,WUHU216HW,2013-02-18 23:17:00,
2013-02-18 17:22:00,65.9,38.0,29.79,NNE,23,3.1,4.7,36,0.00,,,0.00,WUHU216HW,2013-02-18 23:22:00,
2013-02-18 17:27:00,65.5,37.7,29.79,NNW,338,3.6,4.7,36,0.00,,,0.00,WUHU216HW,2013-02-18 23:27:00,
2013-02-18 17:32:00,65.5,37.7,29.80,NE,45,2.9,5.1,36,0.00,,,0.00,WUHU216HW,2013-02-18 23:32:00,
2013-02-18 17:37:00,65.2,37.4,29.81,NNW,338,4.0,5.1,36,0.00,,,0.00,WUHU216HW,2013-02-18 23:37:00,
2013-02-18 17:42:00,65.0,37.9,29.81,NE,45,2.5,4.5,37,0.00,,,0.00,WUHU216HW,2013-02-18 23:42:00,
2013-02-18 17:47:00,64.8,37.1,29.81,North,0,3.1,5.4,36,0.00,,,0.00,WUHU216HW,2013-02-18 23:47:00,
2013-02-18 17:53:00,64.6,36.9,29.81,East,90,1.1,6.9,36,0.00,,,0.00,WUHU216HW,2013-02-18 23:53:00,
2013-02-18 17:58:00,64.4,37.4,29.82,SE,135,2.2,6.9,37,0.00,,,0.00,WUHU216HW,2013-02-18 23:58:00,
2013-02-18 18:03:00,64.3,37.3,29.82,NNW,338,1.1,4.9,37,0.00,,,0.00,WUHU216HW,2013-02-19 00:03:00,
2013-02-18 18:08:00,64.1,37.1,29.82,NW,315,2.5,4.7,37,0.00,,,0.00,WUHU216HW,2013-02-19 00:08:00,
2013-02-18 18:13:00,63.9,37.0,29.83,NW,315,1.1,4.7,37,0.00,,,0.00,WUHU216HW,2013-02-19 00:13:00,
2013-02-18 18:18:00,63.7,37.5,29.83,NNW,338,1.8,2.9,38,0.00,,,0.00,WUHU216HW,2013-02-19 00:18:00,
2013-02-18 18:23:00,63.7,37.5,29.84,NNE,23,1.8,4.7,38,0.00,,,0.00,WUHU216HW,2013-02-19 00:23:00,
2013-02-18 18:28:00,63.5,37.4,29.84,SE,135,1.1,4.7,38,0.00,,,0.00,WUHU216HW,2013-02-19 00:28:00,
2013-02-18 18:33:00,63.4,37.2,29.85,NW,315,2.0,2.9,38,0.00,,,0.00,WUHU216HW,2013-02-19 00:33:00,
2013-02-18 18:38:00,63.0,36.9,29.85,North,0,0.4,3.4,38,0.00,,,0.00,WUHU216HW,2013-02-19 00:38:00,
2013-02-18 18:43:00,62.8,36.7,29.86,WNW,293,3.1,3.4,38,0.00,,,0.00,WUHU216HW,2013-02-19 00:43:00,
2013-02-18 18:48:00,62.6,36.5,29.86,North,0,2.5,3.1,38,0.00,,,0.00,WUHU216HW,2013-02-19 00:48:00,
2013-02-18 18:53:00,62.5,36.4,29.86,NNE,23,0.0,3.1,38,0.00,,,0.00,WUHU216HW,2013-02-19 00:53:00,
2013-02-18 18:58:00,62.3,36.9,29.87,NNW,338,0.2,2.5,39,0.00,,,0.00,WUHU216HW,2013-02-19 00:58:00,
2013-02-18 19:03:00,62.3,36.9,29.87,North,0,1.1,2.0,39,0.00,,,0.00,WUHU216HW,2013-02-19 01:03:00,
2013-02-18 19:08:00,61.9,36.6,29.88,NE,45,0.9,2.7,39,0.00,,,0.00,WUHU216HW,2013-02-19 01:08:00,
2013-02-18 19:13:00,61.7,36.5,29.88,North,0,0.7,2.7,39,0.00,,,0.00,WUHU216HW,2013-02-19 01:13:00,
2013-02-18 19:18:00,61.7,36.5,29.88,NNW,338,0.0,1.8,39,0.00,,,0.00,WUHU216HW,2013-02-19 01:18:00,
2013-02-18 19:23:00,61.6,37.0,29.89,NNW,338,0.0,1.3,40,0.00,,,0.00,WUHU216HW,2013-02-19 01:23:00,
2013-02-18 19:28:00,61.2,36.7,29.89,NNW,338,0.0,0.2,40,0.00,,,0.00,WUHU216HW,2013-02-19 01:28:00,
2013-02-18 19:33:00,61.0,36.6,29.89,NNW,338,0.0,0.2,40,0.00,,,0.00,WUHU216HW,2013-02-19 01:33:00,
2013-02-18 19:38:00,60.8,36.4,29.90,West,270,0.0,0.9,40,0.00,,,0.00,WUHU216HW,2013-02-19 01:38:00,
2013-02-18 19:43:00,60.7,36.8,29.90,NNW,338,0.0,1.1,41,0.00,,,0.00,WUHU216HW,2013-02-19 01:43:00,
2013-02-18 19:48:00,60.3,36.5,29.90,NW,315,0.0,1.1,41,0.00,,,0.00,WUHU216HW,2013-02-19 01:48:00,
2013-02-18 19:53:00,60.1,36.3,29.91,NNW,338,0.4,0.9,41,0.00,,,0.00,WUHU216HW,2013-02-19 01:53:00,
2013-02-18 19:58:00,59.9,36.1,29.91,NNW,338,0.9,0.9,41,0.00,,,0.00,WUHU216HW,2013-02-19 01:58:00,
2013-02-18 20:03:00,59.8,36.5,29.91,NW,315,0.0,0.9,42,0.00,,,0.00,WUHU216HW,2013-02-19 02:03:00,
2013-02-18 20:08:00,59.6,36.4,29.91,NW,315,0.0,0.7,42,0.00,,,0.00,WUHU216HW,2013-02-19 02:08:00,
2013-02-18 20:13:00,59.4,36.2,29.92,NNW,338,0.7,0.7,42,0.00,,,0.00,WUHU216HW,2013-02-19 02:13:00,
2013-02-18 20:18:00,59.2,36.1,29.92,NNW,338,0.0,0.7,42,0.00,,,0.00,WUHU216HW,2013-02-19 02:18:00,
2013-02-18 20:24:00,58.9,36.3,29.92,NNW,338,0.0,0.2,43,0.00,,,0.00,WUHU216HW,2013-02-19 02:24:00,
2013-02-18 20:29:00,58.7,36.2,29.93,NNW,338,0.0,0.4,43,0.00,,,0.00,WUHU216HW,2013-02-19 02:29:00,
2013-02-18 20:34:00,58.5,36.0,29.93,NNW,338,0.0,0.4,43,0.00,,,0.00,WUHU216HW,2013-02-19 02:34:00,
2013-02-18 20:39:00,58.3,35.8,29.93,NNW,338,0.4,0.4,43,0.00,,,0.00,WUHU216HW,2013-02-19 02:39:00,
2013-02-18 20:44:00,58.1,36.3,29.94,NE,45,0.0,0.4,44,0.00,,,0.00,WUHU216HW,2013-02-19 02:44:00,
2013-02-18 20:49:00,58.0,36.1,29.94,NNW,338,0.0,0.7,44,0.00,,,0.00,WUHU216HW,2013-02-19 02:49:00,
2013-02-18 20:54:00,57.8,35.9,29.94,NNW,338,0.0,0.9,44,0.00,,,0.00,WUHU216HW,2013-02-19 02:54:00,
2013-02-18 20:59:00,57.6,35.7,29.94,NNW,338,0.0,0.9,44,0.00,,,0.00,WUHU216HW,2013-02-19 02:59:00,
2013-02-18 21:04:00,57.4,35.6,29.94,NNW,338,0.0,0.4,44,0.00,,,0.00,WUHU216HW,2013-02-19 03:04:00,
2013-02-18 21:09:00,57.2,35.5,29.95,NNW,338,0.4,0.4,44,0.00,,,0.00,WUHU216HW,2013-02-19 03:09:00,
2013-02-18 21:14:00,57.1,35.8,29.95,North,0,0.2,0.7,45,0.00,,,0.00,WUHU216HW,2013-02-19 03:14:00,
2013-02-18 21:20:00,56.9,35.6,29.95,ENE,68,0.4,1.1,45,0.00,,,0.00,WUHU216HW,2013-02-19 03:20:00,
2013-02-18 21:25:00,56.9,35.6,29.96,NNW,338,2.2,2.2,45,0.00,,,0.00,WUHU216HW,2013-02-19 03:25:00,
2013-02-18 21:30:00,56.9,35.6,29.96,NNW,338,1.8,2.2,45,0.00,,,0.00,WUHU216HW,2013-02-19 03:30:00,
2013-02-18 21:35:00,56.9,35.1,29.96,North,0,0.4,2.2,44,0.00,,,0.00,WUHU216HW,2013-02-19 03:35:00,
2013-02-18 21:40:00,56.9,35.1,29.97,North,0,0.4,2.5,44,0.00,,,0.00,WUHU216HW,2013-02-19 03:40:00,
2013-02-18 21:45:00,56.9,35.1,29.97,NNW,338,0.2,2.9,44,0.00,,,0.00,WUHU216HW,2013-02-19 03:45:00,
2013-02-18 21:50:00,56.9,35.1,29.98,NW,315,0.0,3.1,44,0.00,,,0.00,WUHU216HW,2013-02-19 03:50:00,
2013-02-18 21:55:00,56.7,34.9,29.98,West,270,0.4,3.1,44,0.00,,,0.00,WUHU216HW,2013-02-19 03:55:00,
2013-02-18 22:00:00,56.7,34.9,29.99,NE,45,1.6,2.5,44,0.00,,,0.00,WUHU216HW,2013-02-19 04:00:00,
2013-02-18 22:05:00,56.5,34.7,29.99,NW,315,1.8,3.6,44,0.00,,,0.00,WUHU216HW,2013-02-19 04:05:00,
2013-02-18 22:10:00,56.5,34.7,29.99,ENE,68,2.0,4.3,44,0.00,,,0.00,WUHU216HW,2013-02-19 04:10:00,
2013-02-18 22:15:00,56.5,34.7,30.00,North,0,1.1,4.3,44,0.00,,,0.00,WUHU216HW,2013-02-19 04:15:00,
2013-02-18 22:20:00,56.3,34.6,30.01,ENE,68,1.8,2.7,44,0.00,,,0.00,WUHU216HW,2013-02-19 04:20:00,
2013-02-18 22:25:00,56.2,34.4,30.01,North,0,0.9,2.2,44,0.00,,,0.00,WUHU216HW,2013-02-19 04:25:00,
2013-02-18 22:30:00,56.2,34.4,30.01,ENE,68,1.8,3.4,44,0.00,,,0.00,WUHU216HW,2013-02-19 04:30:00,
2013-02-18 22:35:00,55.8,34.1,30.01,NNE,23,0.9,3.4,44,0.00,,,0.00,WUHU216HW,2013-02-19 04:35:00,
2013-02-18 22:40:00,55.8,34.1,30.01,NE,45,0.7,2.9,44,0.00,,,0.00,WUHU216HW,2013-02-19 04:40:00,
2013-02-18 22:45:00,55.6,34.5,30.02,NNE,23,1.8,2.9,45,0.00,,,0.00,WUHU216HW,2013-02-19 04:45:00,
2013-02-18 22:50:00,55.4,34.3,30.02,NE,45,0.4,2.0,45,0.00,,,0.00,WUHU216HW,2013-02-19 04:50:00,
2013-02-18 22:55:00,55.3,34.1,30.02,NE,45,1.1,2.7,45,0.00,,,0.00,WUHU216HW,2013-02-19 04:55:00,
2013-02-18 23:00:00,55.1,33.9,30.02,North,0,0.9,3.1,45,0.00,,,0.00,WUHU216HW,2013-02-19 05:00:00,
2013-02-18 23:01:00,55.1,33.9,30.02,NNW,338,0.9,3.1,45,0.00,,,0.00,WUHU216HW,2013-02-19 05:01:00,
2013-02-18 23:06:00,54.9,34.4,30.02,NNW,338,0.9,2.2,46,0.00,,,0.00,WUHU216HW,2013-02-19 05:06:00,
2013-02-18 23:11:00,54.7,34.2,30.02,NW,315,0.2,2.2,46,0.00,,,0.00,WUHU216HW,2013-02-19 05:11:00,
2013-02-18 23:16:00,54.5,34.0,30.02,NE,45,0.4,2.7,46,0.00,,,0.00,WUHU216HW,2013-02-19 05:16:00,
2013-02-18 23:21:00,54.4,33.8,30.02,NNE,23,0.4,2.7,46,0.00,,,0.00,WUHU216HW,2013-02-19 05:21:00,
2013-02-18 23:26:00,54.2,33.8,30.02,NNW,338,0.4,1.8,46,0.00,,,0.00,WUHU216HW,2013-02-19 05:26:00,
2013-02-18 23:31:00,54.0,33.6,30.02,NNW,338,0.4,1.6,46,0.00,,,0.00,WUHU216HW,2013-02-19 05:31:00,
2013-02-18 23:36:00,54.0,33.6,30.02,NNE,23,0.4,1.3,46,0.00,,,0.00,WUHU216HW,2013-02-19 05:36:00,
2013-02-18 23:41:00,53.6,33.2,30.02,NE,45,0.7,1.8,46,0.00,,,0.00,WUHU216HW,2013-02-19 05:41:00,
2013-02-18 23:46:00,53.6,33.2,30.02,North,0,1.8,1.8,46,0.00,,,0.00,WUHU216HW,2013-02-19 05:46:00,
2013-02-18 23:51:00,53.5,33.0,30.02,NE,45,1.6,2.7,46,0.00,,,0.00,WUHU216HW,2013-02-19 05:51:00,
2013-02-18 23:56:00,53.3,33.0,30.02,NNE,23,0.0,2.7,46,0.00,,,0.00,WUHU216HW,2013-02-19 05:56:00,